Theta_e
338 338 337 337 337 335 333 334 333 331 333 334 334 333 332 333 332 331 332 332 332 332 332 332 332 331 330 332 331 331 332 333 332 330 329 328 329 326 323 327 329 326 327 327 327 327 327 326 325 325 324 323 322 321 322 323 322 322 323 322 322 322 321 321 321 321 321 321 320 320 320 320 319 320 320 320 321 321 321 321 321 322 322 322 322
338 337 337 337 337 336 334 334 334 333 334 334 334 333 333 333 333 332 332 332 332 332 331 331 331 330 330 331 331 331 333 333 332 331 328 327 328 323 320 326 326 325 327 328 328 327 327 326 326 325 324 324 322 321 322 322 322 322 322 321 321 321 321 321 321 320 320 320 319 318 319 319 319 319 320 320 320 320 320 320 320 320 321 321 320
336 336 336 336 336 336 335 334 335 335 335 334 335 334 334 335 334 333 333 333 331 331 331 330 330 330 331 332 330 332 333 333 333 331 329 327 323 319 317 321 323 325 328 328 327 327 327 327 326 325 324 323 322 323 322 320 321 321 321 322 321 321 321 320 320 320 320 320 319 318 318 319 319 319 319 320 320 320 319 320 319 320 320 319 319
335 336 336 336 335 335 334 335 335 335 336 335 335 335 334 335 334 334 333 332 331 331 331 330 330 330 331 331 330 332 334 333 333 331 328 326 323 319 317 317 321 326 328 327 328 328 328 328 327 325 323 322 321 321 319 318 319 320 320 321 321 321 320 318 319 319 319 319 319 318 317 317 318 318 318 318 319 319 319 319 319 319 319 319 319
336 337 336 335 334 334 334 335 334 334 336 336 335 335 335 335 335 335 333 332 332 332 331 331 331 330 329 329 330 332 333 333 333 330 327 326 324 322 320 319 321 325 327 328 329 329 330 330 329 327 324 322 321 317 314 314 317 317 316 317 317 319 318 316 318 318 317 317 318 318 318 317 317 318 318 318 318 318 318 318 318 318 319 319 319
337 336 335 335 334 334 334 334 334 333 335 336 335 336 336 336 336 335 332 332 332 331 331 331 330 330 330 329 329 330 332 333 333 330 328 327 325 324 324 323 323 325 328 329 329 329 330 330 330 329 326 323 320 316 313 312 312 311 311 311 313 315 315 316 318 317 316 316 317 318 318 317 315 316 318 318 318 318 318 318 318 318 318 318 318
336 336 335 335 334 333 334 334 334 334 335 336 335 337 336 336 336 333 331 332 332 331 331 331 331 331 331 331 330 330 332 333 333 330 328 327 326 326 326 326 326 327 328 329 329 329 329 330 330 329 327 324 321 318 316 315 313 312 311 310 311 313 315 317 317 316 316 315 316 317 316 316 316 316 317 317 318 318 318 318 318 318 318 318 318
336 335 335 334 334 334 335 335 334 334 335 335 335 336 335 335 335 333 331 331 331 331 331 331 332 332 332 332 331 331 331 332 333 331 329 328 328 327 327 326 326 327 328 329 328 328 327 329 330 328 326 325 324 322 320 319 318 317 316 315 315 315 316 315 314 313 314 315 315 313 312 313 315 315 314 314 315 317 317 318 318 318 317 317 317
335 335 335 334 334 335 335 335 334 334 334 335 334 335 335 335 335 333 332 331 330 331 331 332 333 332 332 332 332 332 331 331 332 332 330 329 329 329 328 328 327 327 327 327 327 326 327 328 330 328 326 326 326 325 325 324 323 322 321 322 322 322 321 318 316 314 314 316 315 313 314 314 313 312 311 310 310 311 314 316 317 317 317 317 317
335 334 334 334 334 334 334 335 335 334 334 334 335 335 335 335 334 333 333 332 330 331 331 332 333 333 333 333 333 332 332 331 331 332 331 330 331 330 330 330 328 327 326 326 325 325 326 328 329 329 327 327 328 328 328 328 327 326 326 326 325 325 325 323 322 320 318 317 315 315 318 317 317 317 316 314 310 306 306 309 312 313 313 314 315
334 333 333 334 334 333 334 335 335 333 333 335 335 335 335 335 334 333 333 331 330 331 332 331 332 333 333 333 333 333 333 332 331 332 331 331 331 331 330 330 329 327 325 324 325 325 325 326 327 328 328 328 328 329 329 329 329 329 329 328 327 326 327 326 325 324 323 322 320 319 319 319 320 320 320 320 316 307 303 304 306 308 309 310 312
334 334 334 334 334 333 333 335 335 333 334 335 335 335 335 335 335 334 332 332 330 330 331 331 332 333 333 332 332 332 332 331 331 331 331 331 331 331 330 330 330 328 326 325 325 325 325 325 326 327 327 327 327 328 328 328 329 329 329 329 328 328 328 328 327 326 325 325 324 323 322 322 322 322 322 322 317 309 303 303 305 308 311 311 312
334 335 335 333 333 332 332 333 332 332 335 336 335 335 335 335 335 334 332 332 331 330 330 331 332 332 332 332 332 332 332 331 330 330 331 331 331 331 330 330 330 329 327 326 326 326 326 325 325 326 326 326 325 325 326 327 328 329 329 329 329 329 328 328 328 327 327 326 326 325 324 324 324 324 324 323 319 313 310 311 313 317 318 319 319
334 334 334 334 332 332 333 333 331 333 335 336 335 335 336 335 334 334 333 332 332 331 331 331 331 331 331 330 330 330 330 330 330 330 330 330 329 330 330 330 329 329 329 328 327 328 327 327 326 325 325 326 326 326 326 326 326 327 328 328 328 329 329 328 327 327 327 327 326 326 325 325 325 325 325 324 323 321 320 321 322 323 324 324 323
334 334 334 334 333 332 334 333 333 335 336 335 335 335 335 335 333 333 333 332 332 332 332 331 331 331 331 331 330 330 330 329 329 329 329 329 329 329 330 330 329 329 329 328 328 328 328 328 327 327 327 328 327 326 325 325 325 326 328 328 328 329 329 328 328 328 328 327 327 326 326 326 326 326 326 325 324 324 324 324 324 325 324 324 324
334 334 334 334 333 333 334 334 335 336 335 335 335 335 335 335 333 333 333 332 332 332 332 331 330 330 331 332 330 330 331 330 328 328 329 329 329 329 330 329 329 329 329 329 328 328 328 328 328 328 328 328 328 327 325 325 326 327 327 327 328 328 329 328 328 328 327 327 327 326 326 326 326 326 326 325 325 325 324 324 325 325 325 325 325
334 333 334 334 333 334 335 335 335 336 335 335 335 335 335 335 333 333 333 333 332 332 332 331 330 330 331 331 331 331 332 330 328 328 328 329 329 329 329 329 329 329 329 329 328 329 329 329 328 328 328 328 328 328 326 325 326 327 327 327 328 328 328 328 328 327 326 326 326 325 325 325 325 325 325 325 325 325 325 325 325 325 324 323 322
333 333 333 334 333 334 335 335 336 336 335 335 335 335 335 334 333 333 333 333 333 332 332 331 331 331 330 331 332 333 331 329 330 329 328 328 329 329 329 329 329 329 329 329 328 329 329 329 328 328 328 328 328 328 327 326 327 327 326 326 326 325 325 326 326 325 324 324 324 324 325 325 325 325 325 325 325 325 324 324 322 320 317 314 313
333 332 333 333 334 334 334 334 336 336 335 335 334 334 335 334 333 334 333 333 333 332 332 332 332 332 331 331 331 329 329 329 330 329 329 329 328 328 329 329 329 328 328 329 328 328 328 328 328 327 327 327 328 327 326 326 326 326 325 324 323 323 324 324 324 324 323 323 323 323 324 324 325 324 324 324 322 321 321 319 316 312 309 307 307
332 333 333 333 334 334 334 335 336 335 335 335 334 334 334 333 334 333 333 332 333 332 332 331 331 332 331 331 330 328 329 329 328 328 329 329 328 328 328 328 328 328 328 328 328 328 328 328 327 327 327 327 327 326 326 325 325 324 324 324 323 323 322 321 320 320 320 319 319 320 322 322 322 322 320 318 315 313 312 311 308 305 304 304 303
333 333 333 333 334 334 334 335 335 335 335 335 334 333 333 333 333 333 332 333 333 332 333 332 331 331 331 331 331 330 330 329 328 328 327 328 329 328 327 327 327 328 327 327 327 327 327 327 326 326 326 326 326 325 325 325 324 324 324 323 322 320 317 314 312 312 311 310 310 313 315 316 316 315 313 310 308 306 305 304 303 302 301 301 300
332 333 333 333 334 334 334 333 334 333 333 334 334 333 333 333 333 333 333 332 332 332 332 332 331 331 331 331 331 331 331 330 328 328 327 328 328 327 327 327 326 327 327 327 326 327 326 326 326 325 325 325 325 325 325 324 322 321 320 318 315 312 308 307 307 306 306 305 305 306 307 307 307 307 306 306 305 304 303 302 302 301 301 301 301
332 333 332 333 333 333 333 333 332 332 332 333 333 333 334 333 333 334 333 332 331 331 331 331 331 332 331 330 330 330 330 330 329 328 328 327 327 327 326 326 326 326 326 326 326 326 326 326 325 325 324 324 324 323 322 319 315 313 312 309 307 306 306 306 306 306 305 305 304 304 304 304 304 304 304 305 305 305 305 304 304 303 302 301 301
332 332 332 332 332 332 332 332 331 331 331 332 333 333 333 333 333 334 334 332 331 331 331 331 331 332 331 330 330 329 329 330 329 328 328 327 327 326 326 325 326 326 326 326 326 325 325 325 325 325 324 323 321 320 316 311 308 307 306 305 305 306 306 306 305 305 304 304 303 303 303 303 303 303 304 304 304 304 304 303 302 302 302 301 301
331 331 331 331 331 331 331 331 331 330 330 331 333 333 333 333 334 334 333 332 332 332 331 331 331 331 331 331 330 329 328 329 330 329 329 327 327 326 325 325 325 325 326 326 325 325 325 325 324 323 323 323 319 313 309 306 305 305 305 306 306 305 304 303 302 302 301 301 301 301 301 301 302 302 302 302 301 301 301 301 300 300 301 301 301
331 331 330 330 330 330 330 330 331 330 329 330 332 333 333 334 334 333 333 333 333 332 331 331 331 331 331 330 330 329 328 329 330 330 329 327 327 325 324 325 324 324 325 325 325 323 321 321 321 319 319 320 315 308 306 305 306 306 306 305 303 302 302 301 301 301 301 301 301 300 300 300 300 300 300 300 300 300 300 300 300 300 301 301 301
330 330 330 329 329 330 330 330 330 330 329 329 331 332 332 333 333 333 333 333 333 332 331 331 331 331 330 330 331 330 329 328 329 330 328 327 326 325 324 324 324 324 323 324 324 321 317 316 316 314 313 312 308 305 306 307 306 306 304 303 302 301 302 301 302 302 302 301 301 301 301 300 300 300 300 300 300 300 300 301 301 301 301 301 301
329 330 330 329 329 330 330 330 330 330 329 329 330 330 331 332 332 333 333 333 333 331 330 331 332 331 329 330 330 330 329 328 328 329 329 327 326 325 324 323 324 324 323 322 320 317 315 314 313 313 312 309 305 306 308 307 306 305 302 302 302 302 302 303 303 303 303 303 302 302 302 301 300 300 300 300 300 300 300 301 301 301 301 301 301
330 330 329 329 329 330 330 330 330 330 329 329 329 329 330 330 331 332 332 332 332 331 330 331 332 330 329 329 329 329 329 329 328 328 329 328 326 325 324 323 323 323 324 323 318 314 313 313 311 311 312 310 307 307 308 307 305 303 302 302 303 303 304 305 305 306 305 306 305 305 304 304 303 302 301 300 300 300 300 300 300 300 300 301 301
329 329 330 329 329 329 329 329 330 329 329 329 329 329 329 329 330 331 331 331 332 331 330 331 331 330 330 330 329 328 329 329 328 328 328 328 326 324 324 323 322 321 321 320 319 314 311 312 312 312 311 310 308 308 308 306 304 303 302 303 304 306 307 307 308 309 309 309 309 309 309 308 308 307 305 304 302 301 300 299 299 299 299 300 300
329 329 329 328 328 328 328 329 329 328 329 328 327 328 328 329 329 329 330 331 331 331 330 331 331 330 330 329 328 328 328 328 328 328 328 327 326 325 324 323 323 321 318 318 319 316 312 312 313 313 312 310 308 308 307 305 304 303 303 304 307 308 309 309 310 310 310 311 311 311 311 310 310 310 310 309 307 304 302 301 300 299 299 299 299
329 328 328 328 328 327 326 328 328 327 328 327 326 327 327 327 328 328 329 330 331 331 331 332 331 329 329 328 328 328 328 327 327 327 327 326 325 324 324 323 322 320 318 317 317 316 314 314 314 313 313 312 309 308 307 305 304 303 303 305 308 309 309 310 310 310 310 310 310 311 311 311 311 311 311 310 310 308 307 305 302 301 300 299 299
328 328 327 327 327 325 325 326 327 327 326 326 326 325 326 327 326 327 328 328 329 329 330 331 331 330 329 328 327 327 327 327 327 327 326 325 324 324 323 322 321 319 318 317 316 315 314 314 314 313 313 312 310 308 307 305 305 304 303 304 307 309 310 310 310 310 310 310 310 310 310 310 310 310 310 310 310 310 309 309 307 305 303 301 300
328 327 327 327 326 324 323 324 326 326 325 325 325 324 325 326 325 325 326 327 327 328 328 330 330 330 330 329 328 327 327 326 326 325 324 323 323 322 320 320 320 319 318 317 316 315 314 313 313 314 313 311 310 308 308 308 307 307 307 306 306 308 309 310 310 310 310 310 309 309 310 310 310 310 310 310 310 310 310 310 310 309 307 304 301
327 327 327 326 325 323 321 322 324 325 324 324 324 324 323 324 324 323 324 325 326 327 327 328 329 329 330 329 328 328 327 326 324 324 323 322 321 319 318 319 319 318 317 317 315 314 313 313 313 313 312 310 310 309 309 309 309 309 309 310 309 308 308 309 309 309 309 309 309 309 309 309 309 309 309 309 309 309 309 309 310 309 308 307 304
327 327 327 326 325 322 320 321 324 325 324 324 323 323 322 322 322 323 324 325 325 325 326 328 329 329 329 330 329 327 327 325 324 323 322 321 320 319 318 319 319 318 316 315 315 314 313 312 312 312 311 310 310 311 310 310 310 309 309 310 311 310 310 309 309 309 309 309 309 309 309 309 309 309 309 309 309 309 309 309 309 309 309 309 308
327 327 326 326 325 322 320 321 323 324 324 323 323 322 322 321 321 322 324 324 324 324 325 326 328 328 329 329 328 326 325 324 323 322 321 320 320 319 318 319 318 318 317 316 315 314 313 312 312 312 311 310 310 311 310 310 310 310 309 310 311 311 311 311 310 310 309 310 310 310 310 309 309 309 310 310 309 309 309 308 308 308 309 309 309
326 326 324 325 324 322 320 320 322 323 323 322 323 322 321 320 320 321 322 322 323 324 324 325 326 327 327 327 325 324 324 322 322 321 320 320 320 319 319 318 318 318 319 318 317 315 314 313 312 312 311 311 311 311 311 311 311 310 310 311 311 311 312 311 311 311 311 311 311 310 310 310 310 310 310 310 310 310 309 309 308 308 308 308 308
326 325 325 325 324 321 320 319 320 322 322 322 322 321 320 320 319 320 320 321 322 324 324 324 325 325 325 324 324 323 322 321 321 320 319 320 320 320 319 319 319 319 319 319 318 317 315 314 314 313 312 311 312 312 311 311 311 311 310 311 311 311 311 311 311 311 311 311 311 311 311 311 310 310 310 310 310 310 310 309 308 308 308 308 308
326 325 325 324 323 321 319 319 320 322 322 321 321 320 319 318 317 318 319 320 322 323 323 323 324 324 324 323 322 322 321 321 321 320 320 320 319 319 320 319 319 319 319 319 319 318 318 317 317 316 315 313 311 312 312 311 311 311 311 311 311 311 312 312 312 312 311 311 311 311 311 311 310 310 310 310 310 310 310 310 309 308 308 307 307
324 324 323 323 321 320 318 318 320 321 321 320 320 319 318 318 317 318 319 320 321 322 322 322 323 323 323 322 322 322 321 321 321 320 320 320 320 320 320 319 319 319 319 320 320 320 319 319 319 319 318 316 314 314 314 312 311 312 312 312 312 312 312 312 312 312 311 312 312 311 311 311 310 310 310 310 311 311 310 310 310 309 309 308 307
323 322 322 322 320 319 318 318 319 319 320 319 320 319 318 318 319 319 320 319 319 320 321 321 322 322 322 322 322 322 321 321 320 320 320 320 321 321 320 320 320 320 320 320 320 320 320 320 320 320 319 319 319 318 317 316 315 315 315 314 314 314 313 313 313 313 312 311 311 311 312 312 311 311 311 311 312 311 311 310 311 310 310 308 307
322 321 321 321 320 319 318 318 318 318 319 319 319 320 320 320 319 319 319 319 319 320 320 320 321 321 321 321 321 320 320 320 320 319 319 319 320 320 320 320 320 320 320 320 320 320 320 320 320 320 320 320 320 319 319 318 318 317 317 317 316 316 315 315 315 314 314 313 312 312 312 312 311 311 311 312 312 312 311 311 312 311 310 309 308
321 321 321 320 320 319 318 318 317 318 317 318 318 319 320 320 320 320 320 320 319 319 320 320 321 321 320 320 320 319 318 318 318 318 317 317 317 318 319 319 320 319 319 319 318 319 319 319 319 319 319 320 320 320 320 320 319 319 318 318 318 317 317 317 317 316 316 316 314 313 313 313 312 311 311 312 312 311 311 311 311 310 309 309 308
321 321 320 320 318 318 318 317 317 317 316 317 317 318 318 319 320 320 320 319 320 320 320 320 321 321 321 320 320 320 320 319 318 318 318 317 317 317 318 318 318 318 318 317 318 318 318 318 318 318 318 319 319 320 320 320 320 320 319 319 319 319 319 319 318 318 318 317 315 313 312 313 313 312 312 313 313 312 312 312 312 311 310 309 308
321 320 319 319 318 317 317 317 317 316 316 316 316 316 317 316 317 318 318 318 319 320 320 321 321 321 321 320 320 321 321 320 321 321 321 320 320 321 321 321 320 320 319 319 318 318 318 318 319 319 318 319 319 319 320 320 320 320 320 320 320 320 319 319 319 319 319 319 318 315 313 314 314 313 313 314 314 313 313 312 312 311 310 310 309
319 318 317 316 316 315 315 316 316 316 315 315 315 315 315 314 314 314 315 317 318 320 320 320 320 321 321 321 321 321 320 321 321 321 321 321 321 321 321 322 321 321 320 319 319 318 318 318 319 319 318 318 318 319 320 321 321 320 320 320 320 320 320 320 320 319 319 319 319 318 316 316 316 315 314 315 314 313 312 312 311 310 310 310 309
316 316 315 314 314 313 313 314 315 315 315 315 315 315 315 315 314 313 313 314 315 318 319 319 319 319 319 319 319 320 320 321 322 322 321 321 321 321 321 321 321 321 320 320 320 320 320 320 320 320 319 319 319 319 320 321 321 321 320 319 319 319 319 319 319 319 319 319 319 318 318 317 317 316 315 315 313 312 311 311 310 310 310 310 308
314 313 313 313 313 313 313 313 313 314 314 314 315 316 317 317 315 314 314 313 312 315 318 319 318 318 318 318 318 319 320 321 321 320 319 319 319 320 320 321 321 320 321 320 320 320 320 319 319 319 319 319 319 319 320 320 321 321 319 316 317 318 317 317 317 318 319 319 318 318 318 317 317 317 315 314 313 312 312 311 310 310 309 308 307
314 313 312 312 311 312 312 311 312 312 311 311 313 315 316 316 316 315 315 313 314 316 317 317 317 317 318 318 318 319 319 319 318 317 317 316 317 317 317 317 317 317 318 318 319 318 318 318 318 317 318 318 318 319 319 319 319 320 318 317 318 317 316 316 317 317 317 317 317 317 317 317 317 316 315 313 312 311 311 310 309 309 308 306 305
314 313 313 313 311 310 309 308 309 309 309 308 309 311 312 313 313 314 314 314 314 315 315 314 314 315 315 316 316 316 316 316 316 315 315 314 314 313 313 312 312 312 312 312 312 312 312 312 312 311 311 312 313 314 316 317 317 318 317 318 318 317 316 316 316 316 316 317 317 316 316 316 316 315 314 312 310 309 307 307 307 307 306 305 304
Wind_Speed
12 10 10 10 9 7 6 5 3 4 5 5 5 4 4 5 5 4 4 3 2 6 9 10 8 5 5 4 5 10 11 10 10 11 12 13 14 13 13 14 12 12 13 13 12 12 11 10 10 10 10 10 10 11 11 12 12 12 12 12 13 13 13 13 13 14 14 14 13 13 13 13 13 14 14 14 14 14 14 13 13 13 14 14 13
14 12 11 10 11 12 11 10 8 6 4 4 6 6 5 5 7 7 6 4 3 5 8 10 9 4 5 5 7 12 13 11 11 11 13 14 14 13 13 14 13 13 14 12 12 12 11 11 10 10 10 10 10 11 11 11 11 11 11 12 13 13 13 13 13 13 13 13 12 12 13 14 13 14 14 14 14 14 14 14 14 14 14 14 13
15 13 12 10 12 15 15 13 11 9 6 6 8 8 8 7 7 8 6 5 4 5 5 8 8 6 6 7 10 14 13 12 12 11 13 14 14 14 13 13 13 14 14 12 11 12 12 12 11 10 10 9 10 10 10 10 11 11 12 12 12 12 11 11 12 12 12 12 11 12 13 14 13 13 14 14 14 13 13 14 14 15 14 14 14
14 13 12 11 13 16 15 13 13 12 8 7 10 9 10 8 7 7 7 7 5 4 5 7 8 7 7 8 11 15 15 14 13 13 15 15 14 14 14 13 14 15 14 12 12 12 11 11 11 10 10 9 9 10 10 10 11 11 11 12 11 11 10 10 12 12 12 12 12 12 12 13 13 13 13 13 14 13 13 14 14 14 14 15 16
12 11 12 12 13 15 14 12 12 12 7 6 9 10 9 7 6 5 10 8 4 4 7 9 8 9 10 10 14 17 17 15 14 15 15 15 14 14 13 13 13 15 15 14 12 10 10 9 10 10 11 10 9 10 10 11 11 10 10 11 11 10 9 10 11 11 11 11 12 12 12 12 12 13 13 13 13 13 14 14 14 14 14 15 16
11 11 12 12 13 13 12 11 10 9 6 7 8 9 7 5 5 4 10 7 6 7 7 9 10 12 13 11 13 16 17 16 15 15 15 15 15 14 14 13 13 14 15 14 12 9 8 8 9 10 10 10 10 11 11 11 11 11 10 10 10 10 10 10 10 10 10 11 12 12 11 11 11 12 13 13 13 13 14 14 14 14 14 14 15
12 12 12 12 12 12 11 11 11 9 9 10 9 8 7 6 5 8 12 8 8 10 9 11 12 13 13 11 12 15 16 15 15 16 15 15 16 15 14 13 13 14 13 12 10 8 7 7 9 10 10 10 11 12 12 13 12 11 10 10 10 10 10 10 10 10 10 10 11 11 11 11 11 11 12 12 12 12 13 13 13 13 13 13 14
12 14 13 13 12 11 11 10 10 10 9 11 9 8 8 7 4 7 11 8 7 10 11 12 13 14 14 12 12 13 14 14 14 15 15 15 15 14 14 13 13 12 12 11 9 8 7 8 9 11 11 11 11 12 13 14 13 12 11 11 12 12 11 11 10 10 10 10 10 10 11 11 11 11 11 11 10 11 11 12 12 12 12 12 14
13 14 14 13 12 10 10 9 9 9 9 10 9 7 6 7 6 5 6 8 10 12 12 13 14 14 13 12 11 12 13 14 14 15 15 14 14 13 13 13 12 12 11 11 10 9 8 9 10 11 12 11 11 11 11 11 11 11 11 12 12 12 12 11 12 11 10 10 9 10 11 11 11 11 11 11 11 10 10 10 11 11 11 12 12
14 14 13 11 11 10 10 9 9 9 10 10 8 6 6 7 8 7 5 9 14 13 12 14 13 12 13 12 12 11 12 14 14 15 15 14 13 13 13 12 12 11 11 10 10 10 10 11 11 11 11 10 9 8 7 7 8 8 8 9 10 11 9 9 12 12 12 11 10 11 11 11 11 11 10 10 10 10 10 10 10 11 12 12 12
14 15 14 12 11 10 10 10 10 11 12 9 7 7 9 8 10 12 10 11 16 17 16 17 15 13 13 13 12 12 12 13 14 14 14 13 13 14 14 12 11 11 11 11 11 10 11 11 11 11 10 9 8 7 6 6 6 5 5 6 7 9 8 7 9 11 12 13 13 12 12 12 12 11 10 9 9 9 10 10 10 11 12 12 12
14 15 15 14 11 9 10 10 10 13 12 10 9 9 11 11 11 14 15 14 16 19 20 22 20 17 16 15 13 12 11 12 13 13 11 10 11 12 13 12 12 12 11 11 10 9 10 10 11 11 11 10 8 7 7 6 5 5 5 5 5 7 8 7 7 7 9 10 12 13 12 13 14 12 10 10 10 10 10 11 12 12 13 13 12
15 15 15 14 11 9 11 11 11 13 11 10 10 10 12 13 13 13 15 18 18 19 21 25 24 18 16 14 13 12 10 11 10 10 9 9 9 10 12 12 12 12 11 10 9 8 9 9 10 11 11 10 8 7 7 6 5 5 4 5 5 6 8 8 6 5 6 7 9 11 10 11 12 11 10 10 11 12 12 13 13 13 13 13 12
15 15 14 13 11 11 13 14 14 13 11 10 10 12 13 13 15 15 15 19 20 22 24 21 18 17 16 13 9 9 9 10 10 8 8 8 10 10 12 12 12 12 11 10 9 8 9 9 9 10 10 9 8 7 7 6 5 5 5 4 5 6 8 8 7 6 6 5 6 7 7 7 7 8 8 9 10 12 12 12 12 11 10 10 10
15 15 14 13 12 13 15 16 14 12 11 11 12 13 14 13 15 16 17 18 19 23 20 13 15 20 16 8 4 4 4 6 8 7 8 8 9 11 11 12 12 11 11 10 10 9 9 9 8 9 9 8 7 7 6 6 6 6 5 5 5 6 8 9 8 7 6 5 5 5 5 4 5 6 7 8 9 9 9 8 7 7 7 7 7
16 15 14 13 13 13 15 15 14 12 11 12 13 14 14 13 14 15 18 19 18 19 14 12 20 20 10 4 3 3 1 3 7 7 9 10 10 11 11 12 12 11 11 10 10 11 11 10 9 9 8 7 7 6 6 7 8 7 6 6 7 7 8 9 8 8 7 6 5 4 3 3 4 6 7 7 7 7 6 5 5 5 6 6 7
15 14 14 14 13 12 13 14 14 12 12 14 14 14 14 14 14 14 16 17 18 17 13 15 20 14 7 7 5 1 1 5 8 6 6 9 10 11 12 12 12 11 11 11 11 12 12 11 10 9 9 7 6 5 6 7 8 8 8 10 11 11 11 11 10 9 9 9 8 7 6 5 6 7 7 7 7 7 8 8 9 8 8 9 9
15 14 15 15 13 12 12 14 15 12 13 14 14 14 14 14 13 13 15 16 18 17 15 18 16 8 9 9 4 5 9 9 5 3 5 8 8 9 11 11 11 11 12 12 11 11 10 10 10 10 9 8 6 5 5 6 7 9 11 14 15 15 14 14 13 12 11 11 11 11 11 11 11 10 10 9 9 10 10 10 10 10 10 10 10
15 15 15 16 15 13 12 14 15 14 13 14 14 14 14 14 14 13 15 16 18 18 17 19 15 8 8 6 4 12 20 13 6 4 4 5 7 9 9 9 9 10 10 10 10 10 9 10 10 10 9 9 8 7 6 8 10 12 14 16 17 18 17 16 14 13 12 12 13 13 13 14 14 14 12 11 10 9 9 9 9 9 9 10 11
15 16 16 17 17 14 12 14 15 15 14 13 14 14 13 14 13 13 14 16 17 18 18 18 16 11 9 7 9 17 19 12 14 13 6 3 5 6 8 9 9 8 8 9 10 10 10 11 12 12 11 10 10 9 9 12 14 14 15 15 16 17 16 14 13 13 14 13 14 14 13 14 13 12 11 10 9 9 9 9 9 9 9 10 10
16 17 17 17 16 14 13 13 14 15 14 14 15 14 13 14 14 13 14 15 16 17 17 17 16 14 12 14 16 17 14 12 17 17 10 6 4 3 7 9 8 8 8 9 10 11 12 13 13 13 12 11 11 12 14 15 15 14 13 13 12 12 12 11 11 13 14 13 13 13 13 13 12 11 11 10 10 9 9 9 9 10 10 11 11
17 18 17 16 15 15 14 13 13 14 13 14 16 14 14 16 15 13 14 15 16 17 18 16 15 14 14 17 18 16 14 11 14 16 11 8 6 6 9 9 7 8 9 10 11 11 13 16 15 13 11 11 12 14 15 14 13 12 11 10 9 10 10 11 11 12 13 13 13 13 12 12 11 11 11 10 10 9 9 9 10 10 11 11 11
18 18 17 16 16 16 15 13 13 14 13 14 17 15 14 16 15 13 14 15 16 17 17 16 16 15 13 15 17 18 15 12 16 19 14 9 8 7 9 11 10 11 12 12 11 13 15 17 15 13 10 11 13 14 14 13 12 11 10 9 9 10 10 10 11 11 11 12 12 12 11 11 10 10 10 10 10 10 10 10 10 10 11 10 11
19 19 18 17 17 16 16 15 13 12 13 14 16 16 14 14 15 14 13 13 14 17 17 16 16 16 13 13 15 16 15 15 20 21 17 18 15 9 10 13 9 10 15 14 13 14 16 16 15 13 11 9 11 13 13 12 12 11 10 10 10 10 10 10 10 10 10 11 11 11 11 10 10 10 9 9 9 10 10 9 10 10 10 10 10
20 19 19 18 17 17 16 16 14 12 12 12 14 15 15 14 14 15 14 13 13 15 16 16 16 15 15 14 14 13 13 17 20 18 20 24 20 12 13 14 10 10 15 16 15 14 15 16 15 13 11 10 11 12 13 13 13 12 11 11 11 10 10 10 10 10 10 10 11 11 11 11 10 10 10 9 9 10 9 9 9 10 10 9 9
21 19 19 19 17 16 15 14 15 12 11 12 13 15 15 14 13 14 15 14 13 13 14 15 15 15 15 14 14 13 14 18 18 17 22 26 22 17 15 11 10 12 13 15 16 14 14 16 14 10 10 10 11 12 13 13 13 12 11 11 12 11 11 11 11 11 11 10 10 11 11 11 10 10 10 9 9 9 9 9 9 9 8 8 8
21 18 18 17 16 15 14 14 15 13 12 12 12 13 14 13 13 14 15 14 13 13 14 15 14 14 15 15 14 14 14 16 17 18 24 26 25 24 20 11 7 8 9 12 15 15 18 17 11 10 10 10 11 12 13 13 13 12 12 12 12 12 11 11 10 10 10 10 10 10 10 10 10 10 9 9 9 9 9 8 8 8 7 7 7
21 19 18 17 17 16 15 15 15 14 13 12 12 13 13 12 14 15 14 13 12 11 13 15 14 13 14 14 14 15 14 14 16 20 23 24 24 26 24 18 10 6 5 7 9 13 20 20 13 10 10 10 12 13 12 13 13 13 12 12 12 12 12 11 11 10 10 10 10 10 10 10 10 10 9 9 8 8 7 7 7 7 6 6 6
22 21 19 18 17 16 16 15 14 14 14 13 12 12 11 11 13 15 14 14 12 10 13 15 14 13 14 14 14 15 15 13 14 18 20 20 22 25 25 23 18 10 4 4 6 11 18 21 17 13 11 10 12 13 12 13 13 13 13 13 13 13 13 12 11 11 10 10 10 10 11 10 10 10 9 8 8 7 6 6 6 6 5 5 5
22 21 19 18 16 15 16 14 13 14 14 13 13 12 11 11 13 13 13 14 13 11 12 14 14 14 14 14 13 15 16 14 13 15 17 18 22 24 23 23 20 14 10 6 5 13 20 18 15 14 13 12 13 14 13 13 13 14 13 14 14 14 13 12 11 10 10 9 9 9 9 9 10 9 9 8 7 6 5 5 4 4 4 4 3
22 20 18 17 17 18 16 14 13 14 14 13 13 12 11 12 13 12 12 13 13 12 12 12 13 14 14 13 13 14 15 15 14 15 17 18 21 23 22 20 18 17 20 14 5 13 23 20 14 13 12 13 14 14 14 13 13 14 14 15 15 14 13 12 11 10 9 8 8 7 7 7 7 7 7 7 7 6 5 4 3 3 3 2 2
21 20 18 17 18 17 16 15 14 13 13 14 13 12 12 13 13 13 13 12 12 12 11 12 13 13 13 13 12 13 14 15 16 16 16 18 21 22 19 17 18 20 23 19 10 11 20 21 17 15 12 13 15 14 14 14 13 13 14 15 15 15 14 12 12 11 9 8 7 6 5 5 5 4 4 5 5 4 4 4 3 3 3 2 2
20 19 18 17 16 14 14 16 13 12 14 15 13 12 13 13 12 13 15 13 12 12 11 11 13 12 13 13 12 13 15 15 16 15 15 17 18 17 14 14 21 25 22 20 16 13 15 18 19 18 16 15 16 16 15 14 14 15 14 15 16 15 15 13 13 12 10 9 8 6 5 4 3 3 2 2 2 1 2 2 3 3 3 4 4
19 18 18 17 14 11 13 14 12 12 13 14 13 12 11 12 11 11 13 13 13 14 12 11 14 14 14 14 13 15 15 14 15 15 15 14 13 12 9 10 20 25 21 21 19 16 16 19 21 20 18 17 16 17 17 15 15 16 15 15 16 16 15 15 14 13 12 11 9 9 8 7 6 5 4 4 3 2 2 2 2 2 3 4 5
19 18 17 16 13 12 13 13 12 12 12 12 13 11 10 11 9 7 12 15 15 14 12 13 15 15 15 15 15 15 13 13 14 14 12 10 10 11 10 11 14 17 20 21 20 18 19 20 22 23 21 18 16 16 18 16 14 15 15 14 15 17 17 17 16 15 14 13 13 12 11 11 10 9 8 8 7 7 6 5 5 4 5 5 6
18 17 17 14 13 14 14 13 13 12 12 12 11 11 12 10 7 10 15 17 15 12 12 14 15 15 16 16 16 14 12 13 12 9 6 4 6 11 12 11 12 14 20 21 19 20 21 21 23 24 22 20 18 17 19 20 18 17 16 14 15 17 18 18 18 18 17 16 16 16 15 14 13 12 12 11 11 10 10 9 8 8 7 7 7
17 17 17 14 14 14 14 13 12 12 13 11 10 12 13 9 7 12 16 15 13 13 12 13 14 15 16 16 16 13 12 13 9 5 3 3 4 9 12 11 12 13 16 16 16 18 20 21 23 23 21 21 21 21 23 23 22 21 19 18 18 18 19 20 20 19 18 18 18 19 19 18 17 16 15 14 13 14 13 13 12 11 11 10 10
17 18 18 15 14 13 13 13 11 11 14 12 10 12 12 8 6 10 11 9 11 14 14 14 15 15 15 16 15 12 11 10 7 4 5 7 9 8 7 8 10 11 12 11 13 17 18 19 20 21 23 21 20 22 26 26 25 25 24 23 22 22 22 23 23 21 19 20 21 23 23 23 22 20 19 18 17 17 17 16 16 15 14 13 13
17 19 18 15 15 13 13 14 12 13 15 12 11 14 12 7 7 9 7 5 10 16 16 15 16 15 14 14 13 11 10 8 7 7 8 9 11 11 8 8 10 9 9 9 11 15 17 18 17 18 22 22 19 20 23 27 27 25 25 26 26 26 26 26 26 24 23 23 23 25 26 26 25 23 21 20 20 19 19 19 19 18 17 16 15
18 19 18 16 16 14 13 15 14 14 14 11 12 15 13 9 9 8 7 7 13 18 17 15 16 15 14 13 11 10 9 8 7 7 8 8 10 12 11 10 10 9 7 6 6 9 13 16 13 13 16 19 20 17 17 24 27 24 25 26 26 26 27 27 28 28 27 26 25 27 29 30 28 26 24 23 23 22 21 20 19 19 19 18 17
17 18 16 14 15 15 15 17 16 15 14 13 14 15 13 11 10 8 8 10 13 16 17 16 16 16 16 13 11 10 9 8 7 6 6 6 7 10 10 8 8 9 7 6 5 4 6 9 9 10 13 15 17 15 12 18 24 23 24 25 26 27 27 27 29 31 31 29 28 29 30 30 30 29 28 27 26 24 23 21 20 19 19 19 18
17 18 16 14 16 18 18 19 18 17 16 15 15 14 13 12 11 10 10 10 11 14 16 16 15 17 17 14 12 11 10 9 8 6 5 5 4 7 8 7 6 6 6 6 7 7 5 3 2 3 7 9 12 14 13 15 17 18 18 20 23 25 24 23 24 27 31 32 30 30 31 30 31 31 30 30 28 26 25 23 20 19 18 19 19
19 19 18 18 19 21 21 20 20 19 18 17 16 15 14 13 12 11 11 10 10 12 12 13 14 16 15 12 11 9 8 8 8 7 6 5 4 4 5 6 5 4 3 3 3 4 4 4 4 2 2 1 3 8 11 12 12 13 13 13 15 15 15 15 15 17 23 27 29 30 30 30 31 33 33 32 30 28 27 24 21 20 19 19 20
22 21 21 21 22 22 22 22 21 21 19 17 16 16 15 13 12 12 12 11 11 12 12 12 12 14 13 12 11 9 8 7 6 6 5 4 3 3 3 3 3 3 2 2 2 2 3 3 4 4 4 4 3 4 5 6 7 9 10 11 11 10 10 10 10 10 11 15 22 28 29 28 29 32 33 32 31 29 27 25 22 20 20 20 20
24 24 24 24 23 22 22 22 21 21 19 16 14 15 15 15 14 14 15 14 14 14 14 13 14 15 15 15 15 13 10 9 8 6 5 3 2 2 2 2 3 3 4 5 5 5 6 7 8 9 9 9 10 10 8 7 9 10 10 11 11 10 10 10 10 9 8 8 15 23 26 25 26 30 32 30 29 29 27 25 23 22 22 21 20
26 27 26 25 24 22 21 21 20 19 17 14 12 12 12 13 13 14 15 16 16 16 15 15 16 16 14 13 13 11 8 7 8 7 5 4 4 3 3 3 4 5 6 6 7 7 8 9 10 12 12 12 14 15 14 13 14 16 16 15 13 13 14 14 13 14 13 12 12 16 20 21 22 27 30 28 27 28 27 25 24 24 24 22 21
28 27 25 24 23 21 19 18 17 17 16 13 11 10 10 10 10 10 11 13 14 15 14 14 15 15 13 10 9 7 5 5 5 5 2 2 2 4 5 5 6 6 6 7 7 8 9 10 11 13 14 15 15 16 17 16 16 18 19 18 16 15 16 16 16 17 17 17 15 14 16 17 17 21 26 25 24 27 27 26 26 26 24 23 22
27 26 24 22 22 20 19 17 16 16 15 12 11 11 10 9 8 7 7 9 10 10 11 11 11 11 10 8 5 5 4 4 4 3 2 2 2 3 4 5 6 6 6 6 7 8 9 10 11 12 13 15 15 16 17 16 17 19 19 16 15 17 17 17 18 20 21 21 19 17 18 19 18 20 22 21 21 23 25 25 26 25 23 22 23
26 25 24 22 21 20 18 16 15 15 14 12 11 11 11 10 10 10 9 8 6 5 8 10 9 8 9 7 4 5 6 4 1 1 2 3 3 4 4 5 5 6 6 7 7 8 8 8 9 9 10 12 12 13 14 15 17 21 20 17 18 20 19 16 17 20 23 23 20 17 19 22 21 20 20 18 18 20 21 22 23 22 22 22 23
24 22 22 21 20 18 17 15 14 13 13 11 10 10 10 9 10 12 12 12 12 11 11 12 11 10 10 9 7 6 5 3 1 2 3 4 4 4 5 6 7 7 7 8 9 10 10 9 9 10 11 11 12 12 13 13 16 19 20 20 20 20 19 17 18 21 23 24 22 19 19 22 22 22 20 17 15 16 18 18 18 20 21 22 21
19 18 17 16 16 16 15 14 13 12 12 11 10 9 9 9 10 12 14 16 18 17 15 14 13 12 11 9 8 6 4 3 1 3 4 5 6 7 8 9 10 11 11 12 13 14 15 15 15 16 16 16 16 16 16 16 17 19 20 21 20 19 19 20 20 18 15 17 18 17 20 23 23 22 21 15 9 10 12 10 10 13 16 16 17
Wind_Direction
164 170 178 179 189 204 204 197 161 154 175 188 184 165 171 182 181 182 190 201 166 169 179 180 184 172 158 164 164 173 171 153 134 124 121 116 113 115 123 129 130 125 120 117 114 112 112 111 111 111 112 112 111 107 106 105 102 98 96 95 94 92 92 91 89 87 86 85 84 83 81 79 81 82 81 83 84 82 80 78 79 80 78 75 74
169 178 185 184 195 207 208 206 202 197 202 202 203 200 196 197 189 189 184 172 161 178 186 176 170 150 135 151 158 164 167 155 143 133 124 120 121 125 129 135 135 125 118 117 117 117 113 108 106 105 103 102 103 104 106 107 107 106 103 100 98 96 96 96 95 93 91 88 85 85 83 79 80 84 82 81 82 82 78 74 76 79 77 74 73
179 185 191 197 194 194 197 197 192 187 193 202 202 201 201 194 181 187 166 135 156 179 178 163 161 154 142 152 154 160 165 158 149 138 130 128 129 131 133 138 134 123 120 123 122 116 111 107 104 101 100 103 106 109 110 110 111 109 105 102 100 100 101 102 99 95 93 89 87 87 88 85 81 84 85 84 82 81 81 77 76 77 75 74 74
191 195 199 204 195 193 196 198 191 172 172 207 208 198 196 189 188 183 124 122 174 157 128 129 139 157 161 164 160 161 165 161 154 143 138 136 133 132 132 136 135 128 128 128 121 114 110 107 99 91 90 97 107 114 114 112 110 108 108 109 108 106 104 104 101 100 99 96 92 88 89 91 88 84 84 87 87 85 84 82 80 78 76 75 75
200 205 206 205 196 196 195 194 188 166 165 218 208 194 193 186 200 170 97 112 165 114 114 121 129 150 149 152 161 165 168 166 160 150 144 139 135 133 131 134 135 133 132 128 126 125 121 115 105 91 82 85 99 110 111 110 111 109 109 112 115 115 111 107 104 104 104 101 99 94 90 90 91 89 84 82 81 81 83 84 83 81 78 78 78
203 206 203 204 198 193 186 183 178 164 183 213 196 186 191 189 203 137 93 118 138 108 124 128 134 146 140 143 157 164 168 168 164 154 148 142 140 139 136 135 134 136 137 136 140 138 130 124 118 105 91 86 93 103 107 106 106 106 106 110 115 117 111 106 104 103 102 100 100 100 97 92 91 92 91 87 82 80 82 85 86 84 82 80 79
202 206 204 209 204 193 184 181 175 170 195 204 193 192 193 189 178 116 106 129 130 113 124 129 132 138 141 147 151 158 166 169 164 156 152 147 146 146 143 141 140 143 144 144 146 139 132 129 123 117 107 97 97 102 105 104 102 102 102 105 108 109 108 106 105 103 101 99 99 101 101 97 93 91 93 94 92 89 86 86 88 88 87 84 83
202 208 211 212 207 198 186 182 177 177 204 207 197 203 191 169 155 118 113 124 128 121 125 130 130 133 143 150 149 157 167 173 169 160 159 156 152 152 148 146 146 149 149 147 145 138 135 133 129 125 119 112 106 105 104 102 102 103 103 103 103 101 101 102 102 101 100 100 99 99 97 95 96 94 92 91 91 93 91 89 88 88 88 88 88
199 203 208 208 207 200 182 186 186 183 213 212 194 196 180 152 146 140 130 133 132 129 132 135 134 137 144 146 147 158 167 175 176 168 168 166 163 161 156 152 151 152 151 148 143 137 133 132 134 132 129 124 117 111 105 103 103 103 103 102 101 98 93 93 95 96 97 100 101 99 95 92 93 91 87 85 85 90 93 93 92 91 91 92 91
195 200 203 198 201 195 178 187 187 185 210 206 188 183 165 147 139 131 142 146 135 135 144 140 135 138 141 139 143 153 161 169 175 174 174 176 176 173 168 162 159 156 153 148 141 137 132 130 136 141 141 135 129 123 117 115 112 109 107 101 100 103 98 90 92 93 94 97 101 104 103 97 93 88 82 81 81 85 90 93 95 95 94 92 89
192 202 204 196 195 192 184 182 184 205 216 195 182 177 155 147 134 121 129 141 136 138 143 138 133 135 136 134 138 146 154 161 170 175 175 177 177 178 175 167 164 160 154 151 145 140 137 132 134 140 144 143 136 128 122 124 124 129 135 121 110 114 114 102 96 95 95 95 95 96 99 96 93 90 80 75 79 84 89 91 92 92 91 89 86
188 196 201 198 192 195 200 191 190 213 212 185 182 173 151 148 138 128 132 136 138 142 143 139 134 128 127 130 136 143 147 152 165 171 171 172 173 177 177 170 171 168 159 157 152 147 142 135 133 133 135 135 132 127 124 122 123 136 152 151 141 132 130 127 113 102 96 95 92 89 91 93 93 92 79 68 75 84 89 94 94 93 90 87 83
188 191 196 200 197 195 205 208 208 209 197 182 184 168 154 153 146 140 139 138 142 147 146 138 128 119 118 121 127 135 136 136 146 159 163 170 173 173 173 173 178 175 167 165 161 155 150 143 138 132 129 130 131 134 133 126 123 128 141 154 162 159 153 147 137 124 108 97 94 94 95 97 97 95 85 72 76 86 92 97 95 92 89 86 83
190 194 196 201 203 192 193 210 213 201 186 180 176 163 160 160 151 145 143 143 146 149 148 141 130 127 125 115 109 118 125 124 127 142 154 163 172 170 168 169 173 176 173 170 165 159 157 153 144 135 131 132 135 137 135 127 126 131 136 142 157 168 166 160 153 146 136 121 108 104 105 106 105 106 103 94 89 91 94 95 91 84 79 77 78
190 196 197 197 203 192 188 205 204 187 180 171 165 163 162 161 155 150 147 146 150 154 155 155 143 136 130 124 124 117 115 112 108 125 137 143 161 165 163 162 164 169 171 169 164 156 155 153 144 136 135 135 130 123 121 120 123 131 135 132 138 157 163 160 158 151 147 147 134 120 115 116 121 121 121 118 110 102 96 92 87 78 70 64 67
191 195 196 192 194 189 187 197 191 181 181 170 166 167 163 160 159 157 155 149 153 162 169 172 155 144 134 127 144 149 155 119 97 105 130 139 149 152 155 157 156 160 163 161 156 147 145 146 143 140 137 134 122 113 116 119 123 129 131 127 125 135 146 148 147 143 139 138 133 123 122 130 136 130 125 122 117 107 95 92 96 89 79 71 68
189 190 188 185 183 181 184 186 180 180 182 174 173 173 168 166 164 165 166 159 159 165 170 171 162 157 158 144 137 171 193 143 118 97 121 139 146 147 151 154 149 150 153 151 148 144 142 143 146 145 140 140 134 128 128 124 123 129 131 127 121 122 128 130 130 129 125 120 114 106 103 110 127 136 133 122 114 105 96 94 97 94 88 83 80
177 177 175 174 172 173 181 181 178 179 182 178 176 174 171 170 168 167 170 167 165 163 165 171 170 173 175 170 207 200 163 150 134 88 111 130 142 150 155 156 151 150 148 147 147 146 144 143 144 143 142 147 151 146 133 126 128 129 128 125 122 119 117 117 118 117 116 117 113 104 98 99 107 118 123 118 110 106 99 92 90 89 87 86 86
164 169 167 166 168 175 182 182 179 176 180 179 173 173 172 170 171 169 167 167 168 163 163 171 174 176 179 185 224 175 159 154 150 138 125 125 133 142 152 158 158 154 148 149 149 144 145 145 141 138 140 147 156 152 136 132 132 128 127 127 125 121 116 116 117 116 115 118 115 110 107 106 107 111 115 114 108 104 101 96 94 93 92 90 88
164 169 166 166 172 177 178 179 179 176 178 178 170 172 176 172 171 170 166 166 172 169 165 171 173 164 157 145 150 160 159 158 153 142 126 118 125 128 138 143 148 146 140 144 147 146 146 143 137 135 137 145 151 148 139 136 133 128 129 131 128 124 124 127 130 127 122 118 115 114 116 117 117 118 118 116 114 112 109 107 102 98 95 91 88
166 167 163 166 171 171 169 169 170 172 177 177 171 173 178 174 169 168 167 166 173 175 169 174 174 160 148 139 141 149 151 153 149 138 128 135 132 133 142 139 139 141 138 138 140 142 141 133 129 133 138 142 142 140 138 137 134 131 130 133 132 129 132 136 136 133 125 119 118 116 117 121 124 127 125 123 122 119 114 110 105 99 96 93 90
162 160 158 162 164 163 164 163 164 171 175 172 169 171 173 172 169 169 169 166 172 177 175 179 175 162 156 151 148 147 143 144 147 140 133 130 127 144 154 150 144 144 147 147 141 137 135 130 129 137 141 140 142 140 138 138 136 134 134 136 137 134 133 134 132 131 127 125 127 126 127 129 130 130 128 126 122 117 111 106 104 101 99 97 94
157 158 159 160 160 159 161 161 165 172 173 168 169 172 171 171 171 170 168 167 170 173 176 178 172 163 165 165 162 161 158 159 157 151 145 136 135 145 158 157 152 152 152 149 144 136 133 135 141 150 147 139 146 147 143 143 139 135 137 135 135 135 135 136 136 135 135 136 136 136 136 135 134 131 127 126 122 117 114 111 110 108 105 102 99
153 156 156 155 158 159 162 163 160 160 162 166 172 174 173 173 174 172 168 167 168 170 171 172 170 167 166 167 168 170 175 171 162 160 158 150 146 147 160 159 152 157 158 153 152 147 143 150 160 166 161 149 155 157 150 145 139 135 137 136 136 139 139 140 140 140 140 140 139 139 140 139 139 138 135 133 129 125 123 122 118 114 110 108 104
152 151 152 154 156 157 160 162 156 150 153 162 171 173 173 174 175 171 168 168 171 171 171 171 172 171 165 163 167 169 174 168 161 164 163 152 147 148 158 161 157 160 163 160 160 158 159 168 170 172 174 167 164 164 155 145 140 139 140 141 143 143 143 142 140 139 137 137 138 138 140 141 141 142 141 138 134 131 130 127 123 117 113 110 106
155 150 151 153 153 151 154 156 153 150 149 154 163 169 171 172 171 168 167 173 177 176 176 173 172 172 166 163 164 162 162 163 160 163 162 156 153 155 156 160 159 158 162 163 162 158 158 168 174 176 177 173 167 164 157 147 142 145 148 148 149 146 145 142 139 138 135 133 133 132 133 135 136 137 137 136 132 129 129 126 122 116 111 107 104
157 151 150 151 151 152 152 151 152 151 148 147 154 163 168 170 172 169 168 176 182 181 179 174 169 170 167 162 163 164 162 163 163 163 163 160 160 162 160 154 152 160 164 166 167 160 154 157 170 174 164 166 172 166 158 152 148 151 154 154 151 149 146 144 141 138 135 131 128 126 125 125 126 128 128 127 126 124 125 124 120 115 109 104 100
154 149 147 148 148 149 147 145 149 151 149 146 148 156 162 167 172 171 171 178 182 179 178 176 172 171 169 163 163 165 162 158 160 162 165 167 167 167 166 161 156 160 170 166 161 158 157 155 160 173 165 164 174 170 163 160 157 157 160 160 156 153 149 146 142 137 133 130 127 123 122 120 120 121 120 119 119 120 123 122 117 112 108 105 100
151 148 148 147 145 145 143 144 152 155 152 150 151 156 161 163 166 169 171 177 179 175 176 177 176 172 166 162 161 161 160 155 157 163 168 173 174 174 175 171 165 158 158 168 152 153 162 160 158 171 182 179 177 176 171 167 164 163 165 165 162 156 152 148 144 141 136 131 127 122 118 114 111 109 107 107 107 110 114 114 112 107 105 103 99
150 147 148 147 146 145 143 145 151 152 152 153 152 158 162 155 155 162 166 170 174 174 176 176 177 174 165 161 160 159 158 156 159 168 171 173 178 180 180 179 178 171 155 150 154 158 163 166 167 174 183 183 181 179 177 174 170 169 170 170 166 159 156 154 151 148 144 138 132 125 117 110 104 99 95 93 92 94 95 95 93 88 88 87 81
151 148 147 146 148 147 144 144 150 154 156 155 151 155 158 149 149 155 157 163 168 168 173 176 176 176 169 164 164 160 158 159 161 167 170 173 179 182 182 188 197 185 162 147 144 167 168 172 178 178 176 176 180 182 179 179 178 175 176 175 170 167 165 164 165 164 160 155 146 136 127 116 108 100 94 90 85 80 76 71 67 60 59 60 55
152 150 149 147 148 147 144 147 154 160 158 154 150 152 153 151 152 156 155 157 160 161 169 173 174 176 172 169 171 166 163 165 164 165 169 174 180 184 191 204 204 187 169 155 144 168 178 181 180 177 174 173 180 187 182 181 185 184 183 184 179 177 178 179 180 180 178 176 172 165 155 142 131 120 110 99 89 78 66 53 42 30 15 8 3
153 149 147 147 147 142 145 153 157 156 153 151 151 150 151 156 157 157 159 160 157 158 163 170 173 174 171 171 172 168 168 171 170 169 169 172 182 192 207 212 194 184 177 166 152 152 175 184 180 175 179 179 181 189 187 184 190 190 188 191 193 191 191 193 195 196 198 198 200 204 202 195 190 181 170 148 120 88 60 42 24 11 356 343 334
150 149 149 149 146 139 144 155 156 152 153 150 150 152 156 166 169 168 172 169 159 158 160 165 172 171 167 168 168 168 171 173 170 168 169 175 188 192 184 172 176 180 182 172 159 148 157 174 177 174 178 182 181 187 192 193 196 196 194 196 203 208 208 208 210 211 213 217 223 229 232 235 238 238 242 244 247 261 275 295 316 330 330 324 319
150 153 153 148 142 141 146 152 153 153 152 147 150 156 158 164 170 173 176 170 159 156 158 161 166 166 164 165 165 167 171 172 170 171 176 184 188 177 151 129 146 172 181 172 162 155 154 166 177 176 177 184 189 193 198 203 204 202 203 201 202 212 219 222 225 227 228 234 240 243 245 246 248 253 258 263 264 265 267 271 278 289 296 302 305
152 154 152 147 145 148 148 148 153 155 152 149 150 151 152 153 136 129 144 151 148 147 154 159 162 163 164 163 163 166 172 174 176 178 179 179 176 175 164 136 126 152 173 173 167 163 160 167 179 182 180 186 198 204 203 205 205 207 213 211 206 213 221 227 234 236 237 242 245 246 247 244 245 252 258 264 268 268 270 270 271 276 281 285 289
157 155 152 150 152 152 148 148 155 157 153 155 150 143 151 155 123 124 136 140 141 146 153 156 157 160 162 160 160 166 174 180 185 184 157 105 120 157 165 152 134 142 159 169 174 172 169 171 179 186 188 189 197 205 206 205 203 204 214 219 219 222 226 231 237 241 239 240 241 243 244 242 243 248 253 259 264 267 271 272 270 269 271 276 279
159 152 150 154 153 149 147 149 156 155 152 157 150 144 155 161 129 133 140 139 146 149 147 146 147 149 151 154 159 166 174 182 182 155 126 92 81 102 142 160 155 148 143 151 175 184 183 182 182 186 193 195 195 201 208 209 205 203 210 220 226 229 230 232 236 237 237 237 239 242 243 242 242 245 250 255 259 264 269 270 270 269 268 272 274
158 152 151 153 151 150 153 154 158 159 157 162 156 149 156 161 147 150 149 144 156 154 146 140 143 145 146 150 153 152 159 168 155 128 116 99 82 84 112 145 153 151 134 132 164 183 189 193 190 189 197 203 201 201 209 214 213 209 209 213 222 228 231 233 235 235 236 238 241 244 245 244 244 246 250 253 255 259 264 268 270 269 268 270 271
156 152 148 147 150 155 157 153 153 156 156 159 154 151 154 152 154 164 153 133 144 151 150 144 146 149 149 152 153 151 156 156 142 126 114 105 96 95 108 123 127 130 129 126 152 177 191 197 194 188 196 207 211 211 210 207 209 215 215 213 219 227 230 234 237 237 236 238 242 243 243 241 240 242 245 248 252 256 260 265 269 269 269 268 267
148 147 145 147 151 150 146 144 145 148 146 141 141 146 151 149 152 158 148 132 132 141 145 145 153 158 154 157 163 164 165 157 145 136 116 105 106 110 118 125 123 120 114 102 90 105 177 194 194 191 196 206 215 220 214 203 208 219 223 221 227 234 234 234 238 240 239 240 241 240 240 239 239 241 244 247 252 254 255 259 262 266 269 267 264
148 150 150 145 141 138 136 137 137 135 131 126 127 136 144 148 151 148 143 137 128 129 130 128 138 148 146 146 151 152 155 154 152 156 145 129 123 123 132 143 142 129 112 97 78 68 84 104 102 195 204 212 221 227 230 227 226 228 226 225 233 240 240 235 237 241 240 240 239 238 241 242 240 242 245 249 252 253 252 255 259 263 266 265 261
150 152 147 137 133 133 132 131 128 125 122 117 116 123 132 144 157 157 150 146 138 134 131 125 132 142 139 137 141 143 144 143 147 159 166 171 169 149 143 147 152 153 140 118 81 60 60 58 44 24 7 332 230 230 239 245 245 243 243 245 247 249 246 239 238 241 240 239 239 241 245 247 243 242 244 249 252 251 252 257 259 261 263 262 259
142 141 137 131 130 130 128 126 122 117 115 113 111 114 117 127 142 144 139 140 141 143 141 132 135 145 143 134 130 129 134 137 138 149 167 191 194 175 168 172 185 204 219 252 291 311 314 314 308 307 319 324 311 287 273 269 265 261 263 268 266 263 259 251 249 253 252 244 240 242 248 251 248 247 248 252 255 255 256 260 260 258 257 257 255
136 131 128 127 125 125 125 124 120 116 114 113 112 112 111 115 122 120 112 106 106 113 117 114 120 134 136 126 116 107 113 132 139 139 151 169 180 191 209 221 242 260 268 275 280 281 283 291 294 294 297 301 299 296 296 295 289 283 281 280 276 271 268 266 263 267 276 263 243 240 244 250 251 251 254 259 262 261 261 263 263 262 261 257 252
130 126 124 123 121 120 121 120 118 116 114 113 113 114 112 110 113 112 105 94 85 86 91 94 103 116 122 122 118 103 92 115 132 136 149 167 181 209 234 247 257 265 274 280 283 284 285 286 287 286 288 293 293 288 286 285 284 282 279 276 275 273 273 275 276 275 275 275 262 246 243 249 251 248 251 259 261 259 258 258 257 259 259 257 252
124 122 121 120 118 117 116 118 118 114 111 114 118 119 117 114 113 110 107 97 84 77 81 85 90 98 103 107 117 114 80 72 92 104 119 175 214 231 244 254 259 263 271 275 276 278 279 280 281 282 284 288 289 287 285 284 282 280 275 270 270 271 274 275 276 276 274 274 275 264 255 261 259 250 255 263 261 255 253 251 250 250 249 248 247
119 119 117 116 115 115 114 118 119 112 107 111 119 121 122 123 123 120 115 107 90 75 76 85 88 95 98 95 97 107 91 64 58 59 42 354 299 268 256 258 265 271 274 273 272 271 270 271 275 277 279 281 282 285 287 285 278 270 264 264 270 272 275 278 278 276 275 275 277 275 270 273 272 263 266 270 262 253 250 248 247 244 240 236 236
114 114 112 111 111 113 114 115 117 115 109 106 112 119 122 125 126 123 119 118 119 96 83 90 97 100 101 99 99 107 111 112 108 328 319 306 291 283 273 270 276 281 279 275 274 274 276 281 284 287 288 287 287 289 288 285 280 274 270 275 281 280 279 281 279 279 280 279 281 279 271 268 270 267 266 265 258 254 252 248 242 236 230 228 229
108 109 110 110 107 107 108 107 109 112 107 102 108 113 114 119 123 124 123 124 130 129 113 102 103 103 103 107 110 115 120 118 66 329 318 312 311 317 317 312 311 307 298 293 290 287 286 289 291 294 298 300 301 302 300 298 297 294 290 288 286 283 280 274 272 276 279 277 275 270 261 260 264 263 257 251 246 246 248 246 237 229 226 225 224
112 112 113 112 105 100 101 99 99 102 99 95 97 100 102 104 109 117 125 124 122 121 116 109 103 102 104 106 107 108 110 96 33 331 325 325 324 326 328 325 321 317 311 309 308 305 304 303 303 302 302 304 305 305 304 304 304 304 301 296 291 285 277 273 271 270 273 276 276 265 253 257 264 258 246 237 230 231 237 239 227 220 222 222 222